Погода в Леонтьевке

Россия / Тамбовская область     52°20′15″N   42°52′30″E
темп.,
°C
ветер,
м/с
пор.,
м/с
влажн.,
%
обл.,
%
осадки,
мм/ч
давл.,
гПа
погр.,
м
28 июня, вт
вт2800:00+19зсз349214 1.6 101663
03:00+18сз36955 2.7 101599
06:00+20с36900 0.0 1015163
09:00+24с68700 0.0 1015653
12:00+26ссв78553 0.0 10151785
15:00+23ссв786716 0.9 10161207
18:00+20св68660 0.3 1017931
21:00+15св512720 0.3 1019353
29 июня, ср
ср2900:00+12св410730 0.0 1020190
03:00+10всв36770 0.0 102199
06:00+12св34760 0.0 1022150
09:00+17св34580 0.0 10211057
12:00+19ссв444721 0.0 10212016
15:00+20ссв444532 0.0 10202099
18:00+19св345927 0.0 10201197
21:00+14в116956 0.0 102011
30 июня, чт
чт3000:00+15св1163100 0.0 102013
03:00+14зсз336624 0.0 101958
06:00+14зсз357721 0.0 1019159
09:00+19ссз45575 0.0 1018784
12:00+21ссз4644100 0.0 10171959
15:00+22ссз574458 0.0 10162281
18:00+21ссз465612 0.0 1016594
21:00+15сз45725 0.0 101668
1 июля, пт
пт100:00+15зсз3868100 0.0 1015167
03:00+13ссз34845 0.0 101662
06:00+14св510765 0.0 1017378
09:00+17св69490 0.0 10181155
12:00+19ссв67463 0.0 10181825
15:00+20ссв67464 0.0 10192004
18:00+18ссв57570 0.0 10191183
21:00+13всв23700 0.0 102021
2 июля, сб
сб200:00+11всв11720 0.0 102110
03:00+10з22735 0.0 102110
06:00+13зсз35730 0.0 1021137
09:00+19зсз45580 0.0 1021600
12:00+22ссз33452 0.0 10191423
15:00+24сз33436 0.0 10181594
18:00+24зсз14525 0.0 10181525
21:00+17з34766 0.0 101742